Location: Rounton
(54.4000°N, 1.3500°W)
Time: 22:01:21
(UTC+01:00)

deb Delta 126 - Pass Details

Date: 01 July 2022
Orbit: 1120 x 1970 km, 101.5° (Epoch: 17 August)

Event Time Altitude Azimuth Distance (km) Brightness Sun altitude
Rises 01:32:49 0° 40° (NE) 4,845 ? -12.3°
Reaches altitude 10° 01:36:39 10° 25° (NNE) 3,991 ? -12.3°
Maximum altitude 01:42:48 20° 345° (NNW) 3,455 ? -12.1°
Drops below altitude 10° 01:49:23 10° 305° (NW) 4,315 ? -12.0°
Sets 01:53:46 0° 291° (WNW) 5,372 ? -11.9°
